| time (UTC) | temp C | wind direction | speed KPH | gust KPH | rain 1hr cm | rain 24hr cm | rain mn cm | humidity % | barometer mb |
| 20260506211502 | 4 | 265 | 0.0 | 0.0 | 0.00 | 0.00 | 0.00 | 96 | 1004.1 |
| 20260506210004 | 4 | 288 | 0.0 | 0.0 | 0.00 | 0.00 | 0.00 | 96 | 1004.0 |
| 20260506204603 | 5 | 294 | 0.0 | 0.0 | 0.00 | 0.00 | 0.00 | 96 | 1003.8 |
| 20260506204501 | 5 | 294 | 0.0 | 0.0 | 0.00 | 0.00 | 0.00 | 95 | 1003.8 |
| 20260506203122 | 5 | 287 | 0.0 | 0.0 | 0.00 | 0.00 | 0.00 | 96 | 1003.6 |
| 20260506201600 | 5 | 284 | 0.0 | 0.0 | 0.00 | 0.00 | 0.00 | 95 | 1003.5 |
| 20260506194605 | 5 | 278 | 0.0 | 0.0 | 0.00 | 0.00 | 0.00 | 95 | 1003.4 |
| 20260506193106 | 5 | 306 | 0.0 | 0.0 | 0.00 | 0.00 | 0.00 | 96 | 1003.4 |
| 20260506191558 | 5 | 279 | 0.0 | 0.0 | 0.00 | 0.00 | 0.00 | 96 | 1003.4 |
| 20260506190057 | 5 | 275 | 0.0 | 0.0 | 0.00 | 0.00 | 0.00 | 96 | 1003.5 |
| 20260506184557 | 5 | 270 | 0.0 | 1.6 | 0.00 | 0.00 | 0.00 | 96 | 1003.6 |
| 20260506183104 | 5 | 258 | 0.0 | 0.0 | 0.00 | 0.00 | 0.00 | 96 | 1003.6 |
| 20260506181558 | 5 | 307 | 0.0 | 1.6 | 0.00 | 0.00 | 0.00 | 96 | 1004.0 |
| 20260506180055 | 5 | 290 | 0.0 | 0.0 | 0.00 | 0.00 | 0.00 | 96 | 1003.8 |
| 20260506174554 | 4 | 296 | 0.0 | 0.0 | 0.00 | 0.00 | 0.00 | 96 | 1004.1 |
| 20260506173059 | 4 | 248 | 0.0 | 0.0 | 0.00 | 0.00 | 0.00 | 96 | 1004.1 |
| 20260506171553 | 4 | 286 | 0.0 | 1.6 | 0.00 | 0.00 | 0.00 | 96 | 1004.6 |
| 20260506170106 | 4 | 282 | 0.0 | 0.0 | 0.00 | 0.00 | 0.00 | 96 | 1004.0 |
| 20260506164610 | 4 | 298 | 0.0 | 4.8 | 0.00 | 0.00 | 0.00 | 95 | 1004.4 |
| 20260506163100 | 4 | 224 | 0.0 | 12.9 | 0.00 | 0.00 | 0.00 | 95 | 1003.6 |
| 20260506161550 | 5 | 300 | 0.0 | 6.4 | 0.00 | 0.00 | 0.00 | 95 | 1003.8 |
| 20260506160056 | 5 | 284 | 0.0 | 0.0 | 0.00 | 0.00 | 0.00 | 95 | 1003.6 |
| 20260506154553 | 5 | 337 | 0.0 | 0.0 | 0.00 | 0.00 | 0.00 | 95 | 1003.9 |
| 20260506153048 | 5 | 300 | 0.0 | 0.0 | 0.00 | 0.00 | 0.00 | 95 | 1004.0 |
| 20260506151548 | 5 | 308 | 0.0 | 0.0 | 0.00 | 0.00 | 0.00 | 95 | 1004.2 |
| 20260506150059 | 6 | 185 | 0.0 | 0.0 | 0.00 | 0.00 | 0.00 | 96 | 1004.3 |
| 20260506144545 | 5 | 5 | 0.0 | 0.0 | 0.00 | 0.00 | 0.00 | 95 | 1004.1 |
| 20260506143045 | 5 | 248 | 0.0 | 0.0 | 0.00 | 0.00 | 0.00 | 96 | 1004.2 |
| 20260506141546 | 5 | 239 | 0.0 | 0.0 | 0.00 | 0.00 | 0.00 | 96 | 1004.3 |
| 20260506140045 | 5 | 210 | 0.0 | 0.0 | 0.00 | 0.00 | 0.00 | 95 | 1004.6 |
| 20260506134544 | 5 | 243 | 0.0 | 0.0 | 0.00 | 0.00 | 0.00 | 95 | 1004.1 |
| 20260506133054 | 5 | 163 | 0.0 | 1.6 | 0.00 | 0.00 | 0.00 | 95 | 1003.9 |
| 20260506131539 | 6 | 296 | 0.0 | 6.4 | 0.00 | 0.00 | 0.00 | 95 | 1005.0 |
| 20260506130037 | 6 | 189 | 0.0 | 0.0 | 0.00 | 0.00 | 0.00 | 96 | 1004.5 |
| 20260506124537 | 6 | 297 | 0.0 | 0.0 | 0.00 | 0.00 | 0.00 | 95 | 1005.1 |
| 20260506123036 | 6 | 300 | 0.0 | 0.0 | 0.00 | 0.00 | 0.00 | 95 | 1005.4 |
| 20260506121534 | 6 | 301 | 0.0 | 3.2 | 0.00 | 0.00 | 0.00 | 95 | 1005.4 |
| 20260506120056 | 6 | 285 | 0.0 | 0.0 | 0.00 | 0.00 | 0.00 | 95 | 1005.3 |
| 20260506114540 | 6 | 113 | 0.0 | 0.0 | 0.00 | 0.00 | 0.00 | 95 | 1005.0 |
| 20260506113040 | 6 | 113 | 0.0 | 0.0 | 0.00 | 0.00 | 0.00 | 95 | 1004.7 |
| 20260506111544 | 7 | 113 | 0.0 | 0.0 | 0.00 | 0.00 | 0.00 | 95 | 1004.8 |
| 20260506110031 | 7 | 202 | 0.0 | 0.0 | 0.00 | 0.00 | 0.00 | 95 | 1004.6 |
| 20260506104539 | 7 | 311 | 0.0 | 0.0 | 0.00 | 0.00 | 0.00 | 95 | 1004.8 |
| 20260506103039 | 7 | 311 | 0.0 | 0.0 | 0.00 | 0.00 | 0.00 | 96 | 1005.2 |
| 20260506101528 | 7 | 311 | 0.0 | 0.0 | 0.00 | 0.00 | 0.00 | 95 | 1004.9 |
| 20260506100025 | 7 | 325 | 0.0 | 0.0 | 0.00 | 0.00 | 0.00 | 95 | 1005.3 |
| 20260506094523 | 7 | 288 | 0.0 | 0.0 | 0.00 | 0.00 | 0.00 | 95 | 1005.4 |
| 20260506093022 | 8 | 355 | 0.0 | 0.0 | 0.00 | 0.00 | 0.00 | 95 | 1005.0 |
| 20260506091521 | 8 | 255 | 0.0 | 0.0 | 0.00 | 0.00 | 0.00 | 95 | 1005.4 |
| 20260506090020 | 8 | 255 | 0.0 | 0.0 | 0.00 | 0.00 | 0.00 | 96 | 1005.6 |
| 20260506084541 | 8 | 250 | 0.0 | 0.0 | 0.00 | 0.00 | 0.00 | 96 | 1005.6 |
| 20260506083019 | 8 | 318 | 0.0 | 0.0 | 0.00 | 0.00 | 0.00 | 95 | 1005.4 |
| 20260506081523 | 8 | 314 | 0.0 | 0.0 | 0.00 | 0.00 | 0.00 | 95 | 1005.6 |
| 20260506073017 | 8 | 272 | 0.0 | 1.6 | 0.00 | 0.00 | 0.00 | 95 | 1005.1 |
| 20260506071517 | 8 | 290 | 0.0 | 1.6 | 0.00 | 0.00 | 0.00 | 95 | 1005.2 |
| 20260506061515 | 8 | 299 | 0.0 | 1.6 | 0.00 | 0.00 | 0.00 | 94 | 1005.4 |
| 20260506044508 | 9 | 293 | 0.0 | 1.6 | 0.00 | 0.00 | 0.00 | 93 | 1005.3 |
| 20260506043007 | 9 | 294 | 0.0 | 0.0 | 0.00 | 0.00 | 0.00 | 93 | 1005.4 |
| 20260506041505 | 9 | 261 | 0.0 | 0.0 | 0.00 | 0.00 | 0.00 | 93 | 1005.3 |
| 20260506040006 | 10 | 296 | 0.0 | 6.4 | 0.00 | 0.00 | 0.00 | 92 | 1005.1 |
| 20260506034600 | 10 | 298 | 0.0 | 1.6 | 0.00 | 0.00 | 0.00 | 92 | 1004.7 |
| 20260506033100 | 10 | 298 | 0.0 | 6.4 | 0.00 | 0.00 | 0.00 | 91 | 1004.5 |
| 20260506031556 | 11 | 299 | 0.0 | 0.0 | 0.00 | 0.00 | 0.00 | 91 | 1004.7 |
| 20260506030052 | 12 | 290 | 0.0 | 3.2 | 0.00 | 0.00 | 0.00 | 91 | 1004.1 |
| 20260506024551 | 13 | 300 | 0.0 | 8.0 | 0.00 | 0.00 | 0.00 | 86 | 1004.2 |
| 20260506023104 | 13 | 284 | 0.0 | 0.0 | 0.00 | 0.00 | 0.00 | 85 | 1004.2 |
| 20260506021610 | 13 | 315 | 0.0 | 0.0 | 0.00 | 0.00 | 0.00 | 85 | 1004.1 |
| 20260506020051 | 13 | 313 | 0.0 | 0.0 | 0.00 | 0.00 | 0.00 | 85 | 1003.9 |
| 20260506014551 | 13 | 5 | 0.0 | 0.0 | 0.00 | 0.00 | 0.00 | 85 | 1003.6 |
| 20260506013100 | 13 | 133 | 0.0 | 0.0 | 0.00 | 0.00 | 0.00 | 85 | 1003.6 |
| 20260506011611 | 13 | 13 | 0.0 | 0.0 | 0.00 | 0.00 | 0.00 | 84 | 1003.4 |
| 20260506010058 | 13 | 325 | 0.0 | 1.6 | 0.00 | 0.00 | 0.00 | 84 | 1003.2 |
| 20260506004554 | 13 | 152 | 0.0 | 0.0 | 0.00 | 0.00 | 0.00 | 85 | 1003.1 |
| 20260506003056 | 13 | 144 | 0.0 | 0.0 | 0.00 | 0.00 | 0.00 | 87 | 1003.1 |
| 20260506001556 | 13 | 78 | 0.0 | 1.6 | 0.00 | 0.00 | 0.00 | 89 | 1003.2 |
| 20260506000049 | 13 | 96 | 0.0 | 0.0 | 0.00 | 0.00 | 0.00 | 89 | 1003.1 |
| 20260505234647 | 13 | 117 | 0.0 | 4.8 | 0.00 | 0.00 | 0.00 | 90 | 1003.0 |
| 20260505230042 | 13 | 193 | 0.0 | 1.6 | 0.00 | 0.00 | 0.00 | 91 | 1002.3 |
| 20260505224542 | 13 | 186 | 0.0 | 0.0 | 0.00 | 0.00 | 0.00 | 92 | 1002.8 |
| 20260505223042 | 13 | 142 | 0.0 | 0.0 | 0.00 | 0.00 | 0.00 | 91 | 1002.3 |
| 20260505221541 | 13 | 117 | 0.0 | 0.0 | 0.00 | 0.00 | 0.00 | 90 | 1001.7 |
| 20260505220042 | 13 | 173 | 0.0 | 0.0 | 0.00 | 0.00 | 0.00 | 91 | 1001.9 |
| 20260505214551 | 13 | 157 | 0.0 | 1.6 | 0.00 | 0.00 | 0.00 | 91 | 1002.1 |
| 20260505213040 | 13 | 360 | 0.0 | 1.6 | 0.00 | 0.00 | 0.00 | 91 | 1001.9 |